IABS R/B, 22916

Orbit data source: Space-Track

IABS R/B, 22916 is space debris in GEO originally from a launch on Sun, 28 Nov 1993 UTC launched from the Air Force Eastern Test Range (AFETR). Debris objects in space refer to the collection of defunct objects orbiting the Earth. Examples of debris include non-operational satellites, rocket bodies, and fragments generated from explosions, collisions, or faulty payload assembly.

Loading next visibility...
Identifier
22916, 1993-074B
Orbit
GEO
Country
Flag of USUS
Related business
Manufacturer
MM/Valley Forge
Mission
Spacecraft
Bus & Motor
R-4D, R-4D-12 X2
Mass
270 kg wet, 270 kg dry
Launch date (UTC)
1993-11-28 (32 years ago)
Launch vehicle
Unknown
Launch site
Air Force Eastern Test Range (AFETR)
Object type
Payload
Rocket body
Debris
Shape & HBR
Cyl, 1.4 m
Radar Cross Section
4.851 m²

Expand to show TLE details & history
Last TLE update: 1 day ago

TLE from 1 day ago
0 IABS R/B
1 22916U 93074B   25291.95585681 -.00000256  00000-0  00000-0 0  9993
2 22916  13.9597 343.8121 0061074 100.5257 260.1448  0.99999394 23490
Epoch: 2025-10-18T22:56Z
TLE epoch observation values (Epoch: 2025-10-18T22:56:26.028Z)
Latitude
-0°
Longitude
-28.00613°
Altitude
35,907.174 km
Speed
3.069 km/s
True Right ascension
22h 55m 07s
True Declination
0° 00' 00"
Sunlit
Object was in daylight at epoch
Visualization orbit readout
Latitude
Unknown
Longitude
Unknown
Altitude
Unknown
Speed
Unknown
Apparent Right ascension
Unknown
Apparent Declination
Unknown
Sunlit
N/A
Visualization observer readout
Local Sidereal Time
20:17:41
Azimuth
Unknown
Elevation
Unknown
Doppler factor
Unknown
Orbital elements
Apogee altitude
36,122.097 km
Perigee altitude
35,606.117 km
Semi-major axis
42,242.244 km
Eccentricity
0.00611
Inclination
13.9597°
RAAN
343.8121°
Arg. of periapsis
100.5257°
True anomaly
259.45619°
Mean anomaly
260.1448°
Eccentric anomaly
259.8004°
Mean motion
0.24999 °/min
Orbital period
1,440.06 mins
BSTAR
0
Loading maneuver chart data...
Computing Atmospheric mass density...
Loading historical data...
Loading historical data...
Loading historical data...
Loading historical data...
Loading historical data...
Loading historical data...
Loading historical data...
Other satellites on launch #74 in the year 1993 (1993-11-28 UTC)

Documentation

Showing up to 5 results
|